[[[{"header":{"parameterUnit":"kt","parameterCategory":2,"dx":1,"dy":1,"la1":30.253999710083008,"la2":30.299108505249023,"lo1":-89.0895004272461,"lo2":-89.04439544677734,"nx":28,"ny":28,"refTime":"2022-10-02T21:00:00:Z","depth":"0","parameterNumber":2,"parameterNumberName":"U-component_of_CURRENTS"},"data":[0.2785,0.2784,0.2762,0.2738,0.2691,0.2597,0.2522,0.2371,0.2261,0.2024,0.1819,0.1711,0.1327,0.0957,0.0769,0.0846,0.0805,0.0702,0.0883,0.1208,0.1284,0.1357,0.1137,0.0626,0.0625,0.0223,0.0218,0.0214,0.275,0.2725,0.2715,0.2618,0.2597,0.2512,0.2411,0.2323,0.2282,0.2241,0.223,0.201,0.197,0.1979,0.1836,0.1731,0.18,0.1688,0.1483,0.1541,0.2141,0.1934,0.1585,0.1585,0.1585,0.1586,0.1586,0.1586,0.2647,0.2651,0.2531,0.249,0.2438,0.2364,0.2328,0.2245,0.2252,0.2231,0.2315,0.2338,0.231,0.2621,0.2769,0.2653,0.2816,0.2561,0.2487,0.2449,0.2242,0.2653,0.2796,0.28,0.2803,0.2806,0.2808,0,0.2483,0.2446,0.2355,0.2276,0.2236,0.2169,0.2117,0.2135,0.2067,0.2137,0.2243,0.2348,0.2667,0.2796,0.3074,0.3258,0.3143,0.3375,0.3216,0.2563,0.2205,0.2119,0.277,0.3106,0.3111,0.3116,0.3119,0.3121,0.2348,0.2281,0.2095,0.2058,0.1963,0.1937,0.1931,0.1859,0.1897,0.2006,0.2109,0.2381,0.2541,0.3079,0.3311,0.3614,0.3533,0.3502,0.3396,0.2993,0.2825,0.2697,0.264,0.3181,0.3174,0.3167,0.3162,0,0.2311,0.2071,0.1957,0.1748,0.1711,0.1746,0.1664,0.1748,0.1777,0.1942,0.2001,0.2207,0.2536,0.2802,0.3359,0.3437,0.3602,0.3834,0.3333,0.3253,0.2945,0.2801,0.2998,0.2954,0.3868,0.3866,0.3863,0,0.2111,0.203,0.1735,0.1656,0.1655,0.148,0.1576,0.159,0.1681,0.1803,0.1902,0.2087,0.2462,0.2764,0.3001,0.3319,0.3539,0.3479,0.3459,0.3165,0.3104,0.2983,0.2827,0.3884,0.3882,0.388,0.3878,0,0.2098,0.1788,0.1649,0.1552,0.1325,0.1342,0.1297,0.1373,0.1412,0.1627,0.1714,0.2083,0.2272,0.2641,0.2873,0.281,0.3438,0.3363,0.3337,0.3309,0.3164,0.3102,0.3305,0.3875,0.3875,0.3874,0.3873,0,0.1914,0.1729,0.1529,0.1348,0.1307,0.1237,0.1288,0.1234,0.1388,0.1419,0.1647,0.1722,0.21,0.2067,0.2621,0.2438,0.2644,0.2798,0.2811,0.2633,0.2396,0.2385,0.262,0.2399,0.2748,0.274,0.2734,0,0.196,0.1684,0.1505,0.1342,0.1214,0.111,0.1078,0.1064,0.1073,0.1183,0.1369,0.1486,0.1486,0.1604,0.1906,0.2113,0.2389,0.2117,0.2498,0.2508,0.2326,0.2604,0.2306,0.2512,0.2635,0.2645,0.2653,0,0.1991,0.1594,0.1576,0.1473,0.1219,0.1149,0.107,0.1032,0.1105,0.1025,0.1179,0.1287,0.1407,0.1465,0.1536,0.1821,0.2197,0.1803,0.1815,0.1934,0.2721,0.2484,0.2525,0.228,0.2295,0.2306,0.2575,0,0.1813,0.1669,0.1602,0.1359,0.1269,0.115,0.1011,0.0964,0.0902,0.0879,0.0993,0.1018,0.1135,0.1153,0.115,0.152,0.1439,0.1439,0.1478,0.165,0.171,0.1772,0.1008,0.1006,0.1004,0.1002,0,0,0.1928,0.1723,0.1575,0.1427,0.1339,0.1209,0.1104,0.1027,0.0844,0.0886,0.079,0.0874,0.0876,0.1085,0.1122,0.1041,0.1137,0.1113,0.148,0.1532,0.1581,0.1656,0.1717,0.0999,0.0998,0.0997,0.0997,0,0.183,0.1725,0.1612,0.148,0.1294,0.1201,0.1163,0.0977,0.0939,0.0816,0.0828,0.091,0.0782,0.0909,0.0942,0.0991,0.1083,0.0953,0.1159,0.1451,0.1505,0.1555,0.1637,0.1694,0.0992,0.0992,0.0992,0,0.1818,0.1665,0.1603,0.1393,0.1292,0.1169,0.1124,0.101,0.0938,0.089,0.0794,0.0797,0.0801,0.0816,0.0819,0.0817,0.1063,0.0879,0.0888,0.0993,0.1298,0.1356,0.1407,0.077,0.077,0.077,0,0,0.1762,0.1637,0.1442,0.1365,0.1298,0.1158,0.1097,0.1022,0.0916,0.0883,0.0821,0.0798,0.0806,0.0808,0.0771,0.0783,0.09,0.0857,0.0868,0.0877,0.0984,0.1289,0.1342,0.0769,0.0769,0.0769,0,0,0.1744,0.1496,0.1446,0.1342,0.1209,0.1045,0.1015,0.095,0.0874,0.0879,0.0834,0.0821,0.0805,0.0784,0.077,0.0848,0.0798,0.0797,0.0893,0.0905,0.0915,0.1058,0.0803,0,0,0,0,0,0.1556,0.1514,0.147,0.1431,0.1216,0.106,0.1036,0.0956,0.0951,0.0917,0.0857,0.0881,0.0781,0.0766,0.0757,0.086,0.0758,0.076,0.0762,0.0882,0.0896,0.0907,0,0,0,0,0,0,0.154,0.1491,0.147,0.1302,0.1253,0.1063,0.1048,0.1026,0.0953,0.0948,0.0886,0.0879,0.0858,0.0773,0.0764,0.0865,0.0806,0.0759,0.0761,0.0762,0.0887,0.0898,0.0907,0,0,0,0,0,0.1526,0.1486,0.1159,0.1304,0.1261,0.1134,0.105,0.1031,0.098,0.0917,0.0907,0.0921,0.0858,0.0849,0.0767,0.0871,0.0812,0.0809,0.076,0.0761,0.0762,0.0892,0,0,0,0,0,0,0.1516,0.1487,0.1149,0.1134,0.1317,0.1144,0.1113,0.1036,0.0955,0.094,0.0954,0.0952,0.0858,0.0851,0.0843,0.0877,0.0817,0.0814,0.0812,0.0761,0.0762,0.0763,0,0,0,0,0,0,0.1507,0.1475,0.1142,0.1163,0.115,0.1154,0.1125,0.1087,0.0959,0.1,0.0992,0.0954,0.0891,0.0852,0.0846,0.0788,0.0821,0.0818,0.0816,0.0814,0.0762,0.0763,0,0,0,0,0,0,0.1493,0.1465,0.1167,0.1157,0.1146,0.0977,0.1124,0.0929,0.0914,0.1008,0.0915,0.0916,0.0895,0.0886,0.0848,0.0792,0.0789,0.0821,0.0819,0.0817,0.0816,0,0,0,0,0,0,0,0.1481,0.1678,0.1229,0.1152,0.1142,0.0993,0.099,0.0987,0.0914,0.0915,0.0915,0.0916,0.084,0.0837,0.0833,0.0796,0,0,0.0822,0.082,0,0,0,0,0,0,0,0,0.1689,0.1681,0.1229,0.1225,0.1221,0.0993,0.099,0.0988,0.0914,0.0915,0.0915,0.0916,0.0839,0.0836,0.0833,0,0,0,0,0,0,0,0,0,0,0,0,0,0,0,0.1228,0.1225,0,0.0993,0.099,0.0988,0.0914,0.0915,0.0915,0.0915,0.0839,0.0836,0.0834,0,0,0,0,0,0,0,0,0,0,0,0,0,0,0,0,0,0,0,0,0,0,0,0,0,0,0,0,0,0,0,0,0,0,0,0,0,0,0,0,0,0,0,0,0,0,0,0,0,0,0,0,0,0,0,0,0,0,0,0,0,0,0,0,0,0,0,0,0]}],[{"header":{"parameterUnit":"kt","parameterCategory":2,"dx":1,"dy":1,"la1":30.253999710083008,"la2":30.299108505249023,"lo1":-89.0895004272461,"lo2":-89.04439544677734,"nx":28,"ny":28,"refTime":"2022-10-02T21:00:00:Z","depth":"0","parameterNumber":3,"parameterNumberName":"V-component_of_CURRENTS"},"data":[-0.1016,-0.0767,-0.0653,-0.0344,-0.0168,-0.0021,0.006,0.014,0.028,0.0361,0.0407,0.0499,0.0579,0.081,0.0826,0.0847,0.0939,0.0961,0.0949,0.0951,0.0969,0.0987,0.1076,0.0813,0.0813,0.1071,0.1073,0.1074,-0.1137,-0.0973,-0.0645,-0.0305,-0.0106,0.004,0.0353,0.0439,0.0574,0.0822,0.0937,0.0976,0.098,0.1026,0.0964,0.0907,0.1037,0.0875,0.1078,0.1106,0.1051,0.1138,0.0883,0.0883,0.0883,0.0883,0.0883,0.0883,-0.1342,-0.1128,-0.0841,-0.0495,-0.0205,0.0045,0.0253,0.0539,0.0852,0.1139,0.1321,0.1413,0.1509,0.1304,0.12,0.1073,0.1171,0.1008,0.1053,0.1152,0.1245,0.107,0.0938,0.0938,0.0937,0.0937,0.0937,0,-0.1533,-0.1414,-0.108,-0.0724,-0.0407,-0.0021,0.038,0.0585,0.107,0.1338,0.1597,0.1744,0.1766,0.1673,0.1437,0.1292,0.1368,0.1225,0.1194,0.1399,0.1375,0.1215,0.116,0.132,0.1322,0.1324,0.1325,0.1325,-0.1839,-0.1613,-0.1104,-0.0892,-0.066,-0.0174,0.014,0.0631,0.0954,0.1497,0.1674,0.1868,0.2039,0.1839,0.1742,0.1474,0.1499,0.1281,0.1408,0.1241,0.1093,0.1161,0.1163,0.1345,0.1343,0.1341,0.1339,0,-0.2001,-0.1806,-0.1338,-0.0824,-0.0666,-0.0287,0.025,0.0658,0.1077,0.1564,0.1708,0.2164,0.2135,0.2144,0.203,0.1913,0.1717,0.1604,0.1513,0.132,0.108,0.1085,0.1309,0.1321,0.1299,0.1295,0.1292,0,-0.2157,-0.1837,-0.1486,-0.126,-0.0734,-0.0433,0.017,0.0572,0.1102,0.1519,0.1906,0.2202,0.2328,0.2322,0.214,0.1894,0.2014,0.1733,0.1528,0.1549,0.1516,0.14,0.1389,0.1969,0.1971,0.1974,0.1976,0,-0.2373,-0.1946,-0.1562,-0.1408,-0.0875,-0.0564,-0.0255,0.0377,0.0747,0.139,0.1596,0.2152,0.2262,0.2264,0.2044,0.1997,0.1957,0.1814,0.1526,0.1491,0.1445,0.1396,0.1734,0.1979,0.198,0.1981,0.1982,0,-0.2491,-0.226,-0.1839,-0.1313,-0.1198,-0.0926,-0.0235,0.012,0.0765,0.0999,0.1504,0.1652,0.2126,0.1896,0.2056,0.1966,0.1778,0.1639,0.1618,0.1415,0.0958,0.0658,0.1054,0.1004,0.1063,0.106,0.1057,0,-0.2661,-0.2322,-0.2209,-0.1773,-0.1545,-0.1341,-0.0923,-0.0504,-0.0184,0.029,0.0671,0.1104,0.1089,0.1267,0.149,0.139,0.1524,0.149,0.1062,0.1049,0.0806,0.1244,0.1276,0.1006,0.1014,0.1019,0.1022,0,-0.2825,-0.2553,-0.2523,-0.2308,-0.2082,-0.1909,-0.1508,-0.1038,-0.0674,-0.0424,0.0102,0.066,0.0727,0.0965,0.1085,0.1248,0.1406,0.0945,0.0939,0.071,0.1343,0.1182,0.119,0.1287,0.1298,0.1308,0.0989,0,-0.2753,-0.2653,-0.261,-0.2414,-0.2266,-0.2124,-0.1899,-0.1682,-0.1551,-0.1315,-0.0744,-0.0545,-0.0083,0.0065,0.0108,0.0685,0.0393,0.0292,0.0107,0.0504,0.0285,0.0314,-0.0128,-0.0135,-0.0141,-0.0147,0,0,-0.2896,-0.2805,-0.2843,-0.2715,-0.257,-0.258,-0.2378,-0.2214,-0.2004,-0.1754,-0.1903,-0.12,-0.1052,-0.0357,-0.0156,-0.0173,-0.0318,-0.0119,0.0311,0.0363,0.041,0.0226,0.026,-0.0157,-0.016,-0.0162,-0.0164,0,-0.2877,-0.2949,-0.2891,-0.2796,-0.2708,-0.2615,-0.259,-0.2468,-0.2324,-0.2052,-0.1956,-0.1638,-0.134,-0.0984,-0.0788,-0.032,-0.0508,-0.0263,0.0175,0.0252,0.0312,0.0364,0.0195,0.023,-0.0179,-0.0178,-0.0177,0,-0.2917,-0.2904,-0.2907,-0.2854,-0.2809,-0.2649,-0.2733,-0.2661,-0.2429,-0.2504,-0.2176,-0.2061,-0.1816,-0.1417,-0.1252,-0.1333,-0.0742,-0.0849,-0.0813,-0.0697,-0.0628,-0.0556,-0.0493,-0.1326,-0.133,-0.1333,0,0,-0.2897,-0.2896,-0.2843,-0.2853,-0.2827,-0.2759,-0.2712,-0.2674,-0.2571,-0.2526,-0.2392,-0.2197,-0.1924,-0.1775,-0.1596,-0.1269,-0.1352,-0.0987,-0.0933,-0.0888,-0.075,-0.0666,-0.0596,-0.1347,-0.1347,-0.1348,0,0,-0.2878,-0.2858,-0.2872,-0.2899,-0.2805,-0.2721,-0.2684,-0.2656,-0.2535,-0.2549,-0.2448,-0.2408,-0.2087,-0.2037,-0.2232,-0.1524,-0.1748,-0.1709,-0.1529,-0.1462,-0.1409,-0.1286,-0.2241,0,0,0,0,0,-0.2841,-0.2863,-0.2877,-0.2878,-0.2846,-0.2729,-0.2709,-0.2661,-0.27,-0.2637,-0.2535,-0.253,-0.2054,-0.223,-0.2192,-0.1848,-0.1524,-0.1492,-0.1463,-0.116,-0.1089,-0.1029,0,0,0,0,0,0,-0.2842,-0.285,-0.2873,-0.2813,-0.2802,-0.2732,-0.2768,-0.2752,-0.2702,-0.2699,-0.2551,-0.2526,-0.2454,-0.2246,-0.2213,-0.1882,-0.2252,-0.1511,-0.1485,-0.1461,-0.1136,-0.1078,-0.1028,0,0,0,0,0,-0.2841,-0.2847,-0.2839,-0.2807,-0.2798,-0.2729,-0.2769,-0.2756,-0.2712,-0.2586,-0.2562,-0.268,-0.2455,-0.2419,-0.2226,-0.1894,-0.2275,-0.2262,-0.1494,-0.1473,-0.1454,-0.1107,0,0,0,0,0,0,-0.2841,-0.2804,-0.2832,-0.2822,-0.2826,-0.2727,-0.2722,-0.276,-0.2599,-0.2578,-0.2709,-0.2709,-0.2455,-0.2427,-0.24,-0.1891,-0.2294,-0.2281,-0.2273,-0.1478,-0.1462,-0.1447,0,0,0,0,0,0,-0.28,-0.2798,-0.2827,-0.2855,-0.2847,-0.2725,-0.2722,-0.2589,-0.2595,-0.2729,-0.2726,-0.271,-0.2472,-0.2433,-0.2411,-0.2205,-0.2308,-0.2296,-0.2288,-0.2282,-0.1465,-0.1452,0,0,0,0,0,0,-0.2795,-0.2794,-0.2857,-0.2851,-0.2844,-0.2726,-0.2598,-0.2555,-0.2672,-0.2734,-0.2676,-0.2678,-0.2477,-0.2455,-0.2419,-0.2222,-0.2209,-0.2308,-0.2299,-0.2294,-0.229,0,0,0,0,0,0,0,-0.2792,-0.2851,-0.2895,-0.2848,-0.2842,-0.273,-0.2727,-0.2724,-0.2673,-0.2674,-0.2676,-0.2677,-0.2377,-0.2364,-0.235,-0.2237,0,0,-0.2309,-0.2303,0,0,0,0,0,0,0,0,-0.2847,-0.285,-0.2895,-0.2893,-0.2891,-0.273,-0.2727,-0.2725,-0.2673,-0.2674,-0.2675,-0.2677,-0.2373,-0.2363,-0.2352,0,0,0,0,0,0,0,0,0,0,0,0,0,0,0,-0.2895,-0.2893,0,-0.273,-0.2728,-0.2725,-0.2673,-0.2674,-0.2675,-0.2676,-0.2371,-0.2362,-0.2353,0,0,0,0,0,0,0,0,0,0,0,0,0,0,0,0,0,0,0,0,0,0,0,0,0,0,0,0,0,0,0,0,0,0,0,0,0,0,0,0,0,0,0,0,0,0,0,0,0,0,0,0,0,0,0,0,0,0,0,0,0,0,0,0,0,0,0,0,0]}]],[[{"header":{"parameterUnit":"kt","parameterCategory":2,"dx":1,"dy":1,"la1":30.253999710083008,"la2":30.299108505249023,"lo1":-89.0895004272461,"lo2":-89.04439544677734,"nx":28,"ny":28,"refTime":"2022-10-02T21:00:00:Z","depth":"2","parameterNumber":2,"parameterNumberName":"U-component_of_CURRENTS"},"data":[0.2617,0.2595,0.2553,0.2468,0.2451,0.2268,0.2122,0.1878,0.164,0.109,0.0772,0.0253,0.0178,0.0161,0.0077,0.0157,0.0439,0.0123,-0.0284,0.0727,0.0791,0.0941,0.1041,0,0,0,0,0,0.2574,0.2607,0.2653,0.2574,0.2518,0.2533,0.2452,0.2228,0.1946,0.176,0.1335,0.0833,0.0346,0.0181,0.005,-0.0223,0.0181,-0.0205,0.0591,0.0653,0.0712,0.0745,0.0083,0.0084,0.0085,0.0086,0,0,0.2489,0.2542,0.2499,0.2475,0.2502,0.2468,0.236,0.2324,0.226,0.2086,0.1946,0.1452,0.1257,0.0229,0.0055,0.0022,0.0017,0.0221,0.0283,0.0347,0.032,-0.0009,-0.0434,-0.0436,-0.0438,-0.044,-0.0442,0,0.2295,0.23,0.2282,0.2272,0.2278,0.2272,0.2291,0.2339,0.2364,0.2379,0.2265,0.2021,0.1543,0.1172,0.0521,0.0366,0.1012,0.069,0.0997,0.1723,0.1425,0.1326,0.1344,0.1294,0.1302,0.1307,0.1312,0.1315,0.2069,0.2102,0.2031,0.2031,0.199,0.2027,0.2063,0.2076,0.2185,0.2303,0.243,0.2315,0.2085,0.1647,0.1476,0.1045,0.1317,0.0915,0.1178,0.1196,0.1081,0.1096,0.1106,0.1395,0.1385,0.1376,0.137,0,0.1932,0.1833,0.1866,0.1772,0.1755,0.1839,0.1839,0.1979,0.2088,0.2335,0.2418,0.2557,0.2405,0.2374,0.2436,0.2252,0.2067,0.1819,0.1813,0.1682,0.1237,0.122,0.1088,0.1063,0.1042,0.1025,0.101,0,0.1671,0.1711,0.1586,0.1592,0.1659,0.1593,0.175,0.1821,0.2006,0.2202,0.2353,0.25,0.2766,0.2755,0.2688,0.233,0.2737,0.2165,0.2031,0.2268,0.2209,0.2787,0.2763,0.3019,0.3022,0.3025,0.3028,0,0.1552,0.1492,0.1496,0.1475,0.1418,0.1462,0.145,0.1631,0.173,0.2029,0.2169,0.2501,0.2657,0.2767,0.2658,0.2727,0.2755,0.2865,0.2153,0.2087,0.2316,0.2252,0.3031,0.3032,0.3033,0.3034,0.3035,0,0.1385,0.1343,0.1353,0.1335,0.1347,0.1334,0.1458,0.147,0.1729,0.1812,0.2097,0.2233,0.2533,0.249,0.271,0.2659,0.2586,0.2601,0.2589,0.2042,0.1778,0.166,0.1688,0.218,0.2178,0.2175,0.2173,0,0.1254,0.1271,0.1223,0.1228,0.1239,0.1198,0.122,0.1297,0.1364,0.1552,0.1788,0.1995,0.1978,0.2111,0.2304,0.2413,0.2459,0.243,0.2393,0.2387,0.1777,0.1803,0.2019,0.1668,0.2139,0.2142,0.2145,0,0.121,0.1173,0.1192,0.1205,0.1141,0.1138,0.1133,0.1199,0.1323,0.1347,0.1556,0.1757,0.1901,0.2003,0.2087,0.2265,0.2355,0.218,0.2189,0.1975,0.2482,0.1819,0.1774,0.2474,0.2485,0.2493,0.2118,0,0.1145,0.1146,0.1152,0.1152,0.113,0.1113,0.1084,0.1098,0.1076,0.1124,0.1351,0.1459,0.1668,0.1697,0.1704,0.2025,0.1829,0.1922,0.191,0.206,0.1836,0.1857,0.16,0.1599,0.1599,0.1599,0,0,0.1115,0.1121,0.1113,0.1126,0.1109,0.1071,0.1066,0.1046,0.1019,0.1106,0.1037,0.1298,0.1366,0.1642,0.1685,0.1656,0.1605,0.1661,0.1944,0.1981,0.2017,0.1819,0.184,0.1598,0.1598,0.1598,0.1597,0,0.1103,0.1098,0.1118,0.1102,0.1102,0.1059,0.1057,0.1013,0.1026,0.1014,0.1097,0.1266,0.1257,0.1442,0.151,0.1617,0.1581,0.1594,0.1732,0.193,0.1967,0.2002,0.1814,0.1833,0.1596,0.1596,0.1596,0,0.1096,0.1085,0.1081,0.1056,0.1052,0.1031,0.1019,0.1008,0.0995,0.1023,0.1038,0.1121,0.1216,0.1316,0.1369,0.135,0.1536,0.1472,0.1477,0.1585,0.1793,0.1835,0.1871,0.1406,0.1405,0.1404,0,0,0.1097,0.1094,0.1059,0.1048,0.1052,0.1015,0.1002,0.0998,0.0995,0.1007,0.103,0.1101,0.1194,0.1236,0.1305,0.136,0.1394,0.1445,0.1454,0.1461,0.1571,0.178,0.1819,0.14,0.14,0.14,0,0,0.1084,0.1054,0.1069,0.1049,0.1031,0.0972,0.0985,0.0959,0.0981,0.1011,0.1042,0.1061,0.1165,0.1189,0.1133,0.1334,0.1304,0.1314,0.1303,0.1315,0.1324,0.1444,0.1179,0,0,0,0,0,0.1062,0.1051,0.1065,0.1059,0.1007,0.096,0.0953,0.0963,0.0966,0.0974,0.1013,0.1049,0.1201,0.115,0.1158,0.1247,0.1353,0.1361,0.1369,0.1371,0.1383,0.1393,0,0,0,0,0,0,0.1059,0.1049,0.1065,0.1004,0.0993,0.096,0.0975,0.0976,0.0969,0.0977,0.1033,0.105,0.1089,0.1148,0.1155,0.1241,0.1177,0.1356,0.1363,0.1369,0.1375,0.1385,0.1394,0,0,0,0,0,0.1056,0.1049,0.0975,0.1004,0.0994,0.0993,0.0978,0.098,0.0979,0.1026,0.1041,0.0996,0.1085,0.1099,0.1153,0.1238,0.1172,0.1175,0.136,0.1366,0.1371,0.138,0,0,0,0,0,0,0.1054,0.1038,0.0972,0.0968,0.1041,0.0997,0.0994,0.0983,0.1032,0.1042,0.0993,0.0999,0.1082,0.1093,0.1102,0.1238,0.1169,0.1171,0.1173,0.1365,0.1369,0.1373,0,0,0,0,0,0,0.1042,0.1035,0.097,0.1017,0.1018,0.1002,0.0999,0.1013,0.1037,0.0997,0.1002,0.0996,0.1115,0.1088,0.1096,0.1112,0.1166,0.1168,0.117,0.1171,0.1368,0.1372,0,0,0,0,0,0,0.1038,0.1032,0.1018,0.1019,0.102,0.0974,0.1019,0.0996,0.0986,0.0998,0.0995,0.1,0.1113,0.1119,0.1091,0.1103,0.111,0.1166,0.1168,0.1169,0.117,0,0,0,0,0,0,0,0.1035,0.1085,0.0999,0.102,0.1022,0.0931,0.093,0.0929,0.0987,0.0991,0.0994,0.0998,0.1152,0.1155,0.1158,0.1096,0,0,0.1166,0.1167,0,0,0,0,0,0,0,0,0.1087,0.1086,0.0999,0.0998,0.0998,0.0931,0.093,0.0929,0.0987,0.099,0.0994,0.0997,0.1153,0.1155,0.1157,0,0,0,0,0,0,0,0,0,0,0,0,0,0,0,0.0999,0.0999,0,0.0931,0.093,0.0929,0.0988,0.099,0.0993,0.0995,0.1154,0.1155,0.1157,0,0,0,0,0,0,0,0,0,0,0,0,0,0,0,0,0,0,0,0,0,0,0,0,0,0,0,0,0,0,0,0,0,0,0,0,0,0,0,0,0,0,0,0,0,0,0,0,0,0,0,0,0,0,0,0,0,0,0,0,0,0,0,0,0,0,0,0,0]}],[{"header":{"parameterUnit":"kt","parameterCategory":2,"dx":1,"dy":1,"la1":30.253999710083008,"la2":30.299108505249023,"lo1":-89.0895004272461,"lo2":-89.04439544677734,"nx":28,"ny":28,"refTime":"2022-10-02T21:00:00:Z","depth":"2","parameterNumber":3,"parameterNumberName":"V-component_of_CURRENTS"},"data":[-0.0335,-0.0174,-0.0083,0.0151,0.0232,0.0363,0.0471,0.0541,0.0583,0.0698,0.0702,0.0413,0.0255,0.0174,0.0103,0.0187,0.0298,0.0228,0.0449,0.0307,0.0324,0.0311,0.0332,0,0,0,0,0,-0.0424,-0.0423,-0.0292,-0.0059,0.0095,0.0163,0.0411,0.0541,0.0761,0.0861,0.0943,0.0686,0.0413,0.0342,0.0287,0.0265,0.0214,0.0417,0.0291,0.0303,0.0316,0.0326,0.0183,0.0184,0.0185,0.0186,0,0,-0.0609,-0.0564,-0.0497,-0.0246,-0.0106,0.0101,0.0321,0.0529,0.0808,0.1034,0.1103,0.108,0.0848,0.0521,0.0472,0.0546,0.0526,0.0549,0.055,0.0554,0.0577,0.0623,0.05,0.0502,0.0505,0.0506,0.0508,0,-0.0648,-0.0628,-0.0571,-0.0406,-0.0204,0.0052,0.0354,0.0494,0.086,0.1058,0.1262,0.128,0.114,0.093,0.0776,0.0667,0.0773,0.07,0.0922,0.0501,0.054,0.0445,0.0454,0.0398,0.04,0.0401,0.0402,0.0403,-0.0577,-0.0649,-0.0517,-0.0417,-0.0331,-0.0046,0.0198,0.0548,0.076,0.1119,0.1197,0.1295,0.1329,0.1194,0.1049,0.0853,0.0942,0.074,0.068,0.0926,0.083,0.0828,0.0826,0.0423,0.042,0.0418,0.0416,0,-0.0474,-0.0563,-0.0567,-0.0403,-0.03,-0.0112,0.0296,0.0571,0.084,0.1119,0.1183,0.1419,0.138,0.1332,0.1148,0.11,0.0953,0.0903,0.0772,0.0672,0.0818,0.0818,0.0839,0.0841,0.0843,0.0844,0.0845,0,-0.0349,-0.0408,-0.04,-0.0434,-0.0218,-0.0112,0.0244,0.0519,0.0837,0.1107,0.1281,0.1428,0.1372,0.1337,0.1196,0.1069,0.1024,0.0931,0.0837,0.0673,0.0662,0.0788,0.0786,0.0817,0.0818,0.0818,0.0819,0,-0.0221,-0.0299,-0.0389,-0.0407,-0.0285,-0.0112,0.0063,0.0447,0.0681,0.1018,0.1127,0.1363,0.14,0.1276,0.118,0.1123,0.1008,0.0883,0.0834,0.0833,0.0669,0.0656,0.082,0.082,0.082,0.082,0.082,0,-0.0145,-0.0209,-0.0345,-0.0236,-0.0222,-0.0168,0.0171,0.0316,0.0699,0.0832,0.107,0.1162,0.1357,0.1204,0.1198,0.1173,0.104,0.0934,0.0923,0.0996,0.0829,0.0609,0.0587,0.0735,0.0735,0.0735,0.0735,0,-0.0048,-0.0195,-0.0181,-0.0251,-0.0335,-0.0235,-0.0059,0.0122,0.0268,0.0505,0.0701,0.0913,0.0937,0.1045,0.1052,0.1009,0.0997,0.1027,0.0774,0.0772,0.0833,0.0859,0.0677,0.0592,0.0736,0.0736,0.0735,0,0.0031,-0.0094,-0.0128,-0.0146,-0.0246,-0.0234,-0.0144,0.0021,0.0219,0.0228,0.0473,0.0727,0.0817,0.0955,0.1056,0.104,0.0992,0.0903,0.0897,0.0884,0.0794,0.0848,0.0853,0.0822,0.0823,0.0824,0.0736,0,0.0042,-0.0036,-0.0085,-0.0125,-0.0152,-0.0254,-0.0203,-0.0144,-0.0134,-0.0022,0.0213,0.0337,0.0591,0.0612,0.0715,0.088,0.0794,0.0709,0.074,0.0752,0.0704,0.0704,0.0695,0.0694,0.0694,0.0693,0,0,0.0096,0.0071,0.007,0.0008,-0.0042,-0.0112,-0.0174,-0.0129,-0.0134,0.0013,-0.0098,0.0236,0.0343,0.0682,0.0718,0.0706,0.0622,0.0801,0.0735,0.074,0.0744,0.0701,0.0702,0.0692,0.0692,0.0692,0.0692,0,0.0156,0.0143,0.0108,0.0062,-0.0057,-0.0058,-0.0118,-0.0166,-0.0135,-0.0091,0.0007,0.0143,0.0283,0.0496,0.0613,0.0678,0.0662,0.0654,0.0809,0.073,0.0735,0.074,0.0699,0.07,0.0691,0.0691,0.0691,0,0.0222,0.0208,0.0198,0.0153,0.0098,0.0048,0.003,-0.009,-0.0073,0.0013,0.0065,0.0153,0.0324,0.0472,0.0521,0.054,0.0683,0.0682,0.0683,0.0788,0.0709,0.0715,0.0719,0.0661,0.0661,0.0661,0,0,0.0255,0.0251,0.0207,0.0161,0.0117,0.0066,0.0009,-0.0035,-0.0022,-0.0026,0.0063,0.0163,0.0306,0.0379,0.0481,0.0615,0.0607,0.068,0.0682,0.0683,0.0785,0.071,0.0714,0.0662,0.0662,0.0662,0,0,0.027,0.0259,0.0244,0.0204,0.0141,0.0119,0.0038,0.0006,0.0029,-0.0001,0.014,0.0172,0.0262,0.0333,0.0322,0.0536,0.0523,0.0529,0.0538,0.0541,0.0542,0.0648,0.0438,0,0,0,0,0,0.0299,0.0269,0.0256,0.0239,0.0199,0.0139,0.0129,0.0064,0.0021,-0.0016,0.0058,0.0132,0.036,0.0354,0.0392,0.0478,0.0669,0.0667,0.0666,0.0704,0.0706,0.0707,0,0,0,0,0,0,0.0293,0.0285,0.0253,0.0238,0.0222,0.0145,0.0152,0.014,0.0023,0.0015,0.0116,0.014,0.0259,0.0344,0.0376,0.0456,0.0427,0.0668,0.0667,0.0666,0.0705,0.0706,0.0707,0,0,0,0,0,0.0287,0.028,0.0235,0.0237,0.0224,0.0125,0.0153,0.0141,0.0061,0.0181,0.0194,-0.0011,0.0259,0.029,0.0364,0.044,0.0406,0.0418,0.0668,0.0667,0.0666,0.0706,0,0,0,0,0,0,0.0282,0.0314,0.023,0.022,0.0206,0.0125,0.0119,0.0143,0.0239,0.0239,0.0074,0.0068,0.026,0.0284,0.0307,0.0428,0.0388,0.04,0.0408,0.0667,0.0666,0.0666,0,0,0,0,0,0,0.0312,0.0309,0.0227,0.0193,0.0181,0.0126,0.0119,0.025,0.0249,0.0138,0.0127,0.0071,0.026,0.028,0.0299,0.0502,0.0375,0.0386,0.0394,0.0399,0.0666,0.0666,0,0,0,0,0,0,0.0308,0.0305,0.0198,0.0188,0.0177,0.0089,0.0249,0.0251,0.0079,0.0143,0.0071,0.0067,0.026,0.0276,0.0293,0.0487,0.0498,0.0375,0.0383,0.0388,0.0392,0,0,0,0,0,0,0,0.0305,0.0359,0.0251,0.0184,0.0175,0.0123,0.0124,0.0125,0.0078,0.0075,0.0072,0.0069,0.031,0.0323,0.0335,0.0476,0,0,0.0374,0.038,0,0,0,0,0,0,0,0,0.0358,0.0359,0.025,0.0246,0.0242,0.0123,0.0124,0.0125,0.0077,0.0075,0.0072,0.007,0.0314,0.0324,0.0334,0,0,0,0,0,0,0,0,0,0,0,0,0,0,0,0.0249,0.0246,0,0.0123,0.0124,0.0124,0.0077,0.0075,0.0073,0.0071,0.0317,0.0325,0.0333,0,0,0,0,0,0,0,0,0,0,0,0,0,0,0,0,0,0,0,0,0,0,0,0,0,0,0,0,0,0,0,0,0,0,0,0,0,0,0,0,0,0,0,0,0,0,0,0,0,0,0,0,0,0,0,0,0,0,0,0,0,0,0,0,0,0,0,0,0]}]],[[{"header":{"parameterUnit":"kt","parameterCategory":2,"dx":1,"dy":1,"la1":30.253999710083008,"la2":30.299108505249023,"lo1":-89.0895004272461,"lo2":-89.04439544677734,"nx":28,"ny":28,"refTime":"2022-10-02T21:00:00:Z","depth":"4","parameterNumber":2,"parameterNumberName":"U-component_of_CURRENTS"},"data":[-0.1345,-0.1321,-0.1168,-0.0944,-0.0779,-0.0787,-0.0768,-0.0766,-0.0762,-0.078,-0.0826,-0.0927,-0.1051,-0.1043,-0.1184,-0.1229,-0.1453,-0.1563,-0.1562,-0.201,-0.204,-0.2065,-0.1666,0,0,0,0,0,-0.135,-0.1283,-0.1145,-0.0857,-0.0865,-0.0777,-0.0762,-0.0693,-0.0711,-0.0836,-0.0754,-0.0988,-0.1094,-0.1211,-0.1215,-0.1449,-0.1732,-0.1461,-0.1836,-0.2029,-0.2061,-0.1662,0,0,0,0,0,0,-0.1378,-0.1311,-0.1203,-0.0895,-0.0823,-0.0738,-0.0584,-0.0603,-0.0599,-0.0752,-0.0857,-0.1054,-0.1263,-0.1352,-0.1535,-0.1606,-0.1667,-0.1727,-0.1773,-0.1807,-0.1443,-0.089,-0.1222,0,0,0,0,0,-0.1341,-0.128,-0.1168,-0.0937,-0.0718,-0.0578,-0.0386,-0.0403,-0.0362,-0.0494,-0.0702,-0.0815,-0.1243,-0.1498,-0.1613,-0.1851,-0.219,-0.2176,-0.2197,-0.2099,-0.1728,-0.1847,-0.1818,-0.2183,-0.2187,-0.219,-0.2191,0,-0.1321,-0.1259,-0.0999,-0.0864,-0.0671,-0.0322,-0.0194,0.0013,-0.0079,-0.0273,-0.0526,-0.0831,-0.0978,-0.1573,-0.1849,-0.2142,-0.2106,-0.2258,-0.2151,-0.1773,-0.1895,-0.1856,-0.1817,-0.2217,-0.2215,-0.2213,-0.2211,0,-0.1285,-0.1225,-0.1089,-0.0769,-0.0613,-0.0343,-0.0073,-0.0028,0.0077,-0.0148,-0.0184,-0.0456,-0.0846,-0.1167,-0.1859,-0.1895,-0.2274,-0.2265,-0.2108,-0.2264,-0.1893,-0.1842,-0.226,-0.2251,-0.2243,-0.2236,-0.223,0,-0.1235,-0.1191,-0.0973,-0.0936,-0.0601,-0.0426,-0.0143,0.0067,0.006,-0.0024,-0.0001,-0.0234,-0.0683,-0.1095,-0.1286,-0.1643,-0.2008,-0.1799,-0.1962,-0.2039,-0.1992,-0.2281,-0.2255,-0.2466,-0.2463,-0.246,-0.2457,0,-0.1271,-0.118,-0.1049,-0.1024,-0.0812,-0.0552,-0.0338,-0.0125,-0.0059,-0.0007,-0.0134,-0.0238,-0.0481,-0.0852,-0.111,-0.1094,-0.1889,-0.2041,-0.1869,-0.1841,-0.2253,-0.2233,-0.2453,-0.2453,-0.2452,-0.245,-0.2449,0,-0.13,-0.1266,-0.1172,-0.0975,-0.092,-0.0766,-0.0428,-0.0293,-0.02,-0.0118,-0.0097,-0.018,-0.0289,-0.0318,-0.0853,-0.0687,-0.0913,-0.1227,-0.1261,-0.1094,-0.1219,-0.1585,-0.1596,-0.1588,-0.158,-0.1573,-0.1566,0,-0.1304,-0.13,-0.126,-0.1154,-0.1102,-0.0974,-0.0777,-0.0604,-0.047,-0.0444,-0.0384,-0.0311,-0.0131,-0.0085,-0.0284,-0.0659,-0.0804,-0.0499,-0.1481,-0.1503,-0.1168,-0.1126,-0.1029,-0.1462,-0.1475,-0.1485,-0.1491,0,-0.1326,-0.1336,-0.135,-0.1287,-0.1245,-0.1167,-0.0994,-0.0783,-0.0667,-0.0614,-0.0532,-0.0225,-0.0266,-0.0208,-0.0195,-0.0454,-0.0647,-0.0607,-0.0639,-0.0759,-0.1437,-0.1044,-0.1068,-0.0973,-0.0985,-0.0994,-0.1419,0,-0.1348,-0.1356,-0.1357,-0.132,-0.1266,-0.1248,-0.1139,-0.1067,-0.0947,-0.0873,-0.0722,-0.0739,-0.0646,-0.0546,-0.0447,-0.049,-0.0574,-0.0797,-0.0983,-0.0927,-0.11,-0.1154,-0.0611,-0.0618,-0.0624,-0.0629,0,0,-0.1352,-0.1332,-0.1329,-0.1339,-0.1288,-0.1289,-0.1235,-0.118,-0.1194,-0.1097,-0.111,-0.0985,-0.0947,-0.0791,-0.0614,-0.0675,-0.0905,-0.0607,-0.0885,-0.091,-0.0937,-0.1102,-0.1147,-0.0639,-0.0641,-0.0644,-0.0645,0,-0.1328,-0.1336,-0.133,-0.1335,-0.1328,-0.1278,-0.1286,-0.1276,-0.1217,-0.116,-0.1168,-0.1122,-0.1038,-0.0983,-0.0916,-0.0763,-0.097,-0.0675,-0.0494,-0.092,-0.0937,-0.0955,-0.1117,-0.1154,-0.066,-0.0659,-0.0658,0,-0.1314,-0.1299,-0.1298,-0.1283,-0.1274,-0.1246,-0.1257,-0.1265,-0.1189,-0.1307,-0.1273,-0.1254,-0.1228,-0.1112,-0.1091,-0.1168,-0.1149,-0.1013,-0.0986,-0.1008,-0.1465,-0.1479,-0.1491,-0.1347,-0.1348,-0.1349,0,0,-0.1297,-0.1294,-0.1266,-0.1274,-0.1268,-0.1254,-0.1254,-0.1255,-0.1274,-0.1293,-0.1327,-0.1338,-0.1251,-0.126,-0.1257,-0.1218,-0.1474,-0.1081,-0.1049,-0.1021,-0.1026,-0.1469,-0.1481,-0.1352,-0.1352,-0.1352,0,0,-0.1283,-0.1251,-0.1251,-0.1255,-0.1243,-0.1213,-0.1224,-0.1224,-0.1268,-0.129,-0.1316,-0.1332,-0.1274,-0.1364,-0.1403,-0.1191,-0.1347,-0.1344,-0.1066,-0.1028,-0.0997,-0.0983,-0.1393,0,0,0,0,0,-0.1238,-0.1249,-0.125,-0.1247,-0.1229,-0.121,-0.1209,-0.1208,-0.122,-0.1232,-0.1282,-0.1287,-0.1359,-0.1396,-0.1409,-0.1197,-0.139,-0.1383,-0.1377,-0.1013,-0.0972,-0.0937,0,0,0,0,0,0,-0.1237,-0.1233,-0.1249,-0.1217,-0.1213,-0.121,-0.1203,-0.1203,-0.1219,-0.1222,-0.1276,-0.1287,-0.1302,-0.139,-0.1402,-0.1195,-0.1389,-0.1387,-0.1381,-0.1376,-0.0999,-0.0965,-0.0936,0,0,0,0,0,-0.1235,-0.1232,-0.1206,-0.1217,-0.1213,-0.1208,-0.1204,-0.1204,-0.1227,-0.125,-0.1261,-0.123,-0.13,-0.1315,-0.1397,-0.1185,-0.1381,-0.1385,-0.1383,-0.1379,-0.1375,-0.0982,0,0,0,0,0,0,-0.1234,-0.1235,-0.1206,-0.1204,-0.1224,-0.121,-0.1208,-0.1205,-0.1257,-0.1264,-0.1204,-0.1206,-0.1299,-0.1311,-0.1322,-0.1172,-0.1374,-0.1378,-0.1381,-0.138,-0.1376,-0.1373,0,0,0,0,0,0,-0.1236,-0.1233,-0.1205,-0.1214,-0.1214,-0.1211,-0.121,-0.1254,-0.1261,-0.1211,-0.1211,-0.1205,-0.1312,-0.1308,-0.1316,-0.1382,-0.1369,-0.1373,-0.1376,-0.1378,-0.1377,-0.1374,0,0,0,0,0,0,-0.1235,-0.1233,-0.1215,-0.1215,-0.1214,-0.1199,-0.1254,-0.1256,-0.1205,-0.1211,-0.1207,-0.1208,-0.131,-0.1318,-0.1313,-0.1374,-0.138,-0.1369,-0.1372,-0.1374,-0.1375,0,0,0,0,0,0,0,-0.1234,-0.125,-0.1212,-0.1215,-0.1215,-0.1189,-0.1189,-0.1189,-0.1205,-0.1206,-0.1207,-0.1208,-0.1344,-0.1349,-0.1354,-0.1367,0,0,-0.1368,-0.1371,0,0,0,0,0,0,0,0,-0.1251,-0.1251,-0.1212,-0.1211,-0.1211,-0.1189,-0.1189,-0.1189,-0.1205,-0.1206,-0.1207,-0.1207,-0.1345,-0.1349,-0.1353,0,0,0,0,0,0,0,0,0,0,0,0,0,0,0,-0.1212,-0.1211,0,-0.1189,-0.1189,-0.1189,-0.1205,-0.1206,-0.1206,-0.1207,-0.1347,-0.135,-0.1353,0,0,0,0,0,0,0,0,0,0,0,0,0,0,0,0,0,0,0,0,0,0,0,0,0,0,0,0,0,0,0,0,0,0,0,0,0,0,0,0,0,0,0,0,0,0,0,0,0,0,0,0,0,0,0,0,0,0,0,0,0,0,0,0,0,0,0,0,0]}],[{"header":{"parameterUnit":"kt","parameterCategory":2,"dx":1,"dy":1,"la1":30.253999710083008,"la2":30.299108505249023,"lo1":-89.0895004272461,"lo2":-89.04439544677734,"nx":28,"ny":28,"refTime":"2022-10-02T21:00:00:Z","depth":"4","parameterNumber":3,"parameterNumberName":"V-component_of_CURRENTS"},"data":[-0.0357,-0.0473,-0.0481,-0.0623,-0.0643,-0.0831,-0.089,-0.0909,-0.0956,-0.0929,-0.0874,-0.0854,-0.0743,-0.0847,-0.0631,-0.0604,-0.043,-0.0454,-0.045,-0.0176,-0.0169,-0.0162,-0.0388,0,0,0,0,0,-0.0228,-0.0325,-0.041,-0.0457,-0.0563,-0.0588,-0.0741,-0.0753,-0.0779,-0.0927,-0.0893,-0.0925,-0.0801,-0.0748,-0.0652,-0.0625,-0.0405,-0.0504,-0.027,-0.0171,-0.0163,-0.0385,0,0,0,0,0,0,-0.0084,-0.0182,-0.0211,-0.0215,-0.0329,-0.047,-0.0478,-0.0628,-0.0743,-0.0871,-0.0891,-0.0901,-0.0906,-0.0764,-0.0571,-0.045,-0.0431,-0.0322,-0.0307,-0.0297,-0.0495,-0.0417,-0.0497,0,0,0,0,0,0.0032,0.0082,0.0005,-0.0019,-0.0056,-0.0213,-0.03,-0.0366,-0.0513,-0.0605,-0.0768,-0.0763,-0.0835,-0.0751,-0.0558,-0.0352,-0.0221,-0.0131,-0.0126,-0.0232,-0.0142,-0.0063,-0.0052,-0.0132,-0.0131,-0.013,-0.013,0,0.0185,0.0168,0.0153,0.0121,0.0155,0.011,0.0015,-0.0054,-0.0242,-0.044,-0.0618,-0.0685,-0.0774,-0.0671,-0.0577,-0.0311,-0.0267,-0.011,-0.0224,-0.0129,-0.0053,-0.0044,-0.0035,-0.0123,-0.0124,-0.0124,-0.0125,0,0.0239,0.0286,0.0213,0.0192,0.0202,0.0154,0.0076,-0.0098,-0.0146,-0.0414,-0.044,-0.061,-0.0615,-0.0575,-0.047,-0.0375,-0.0268,-0.0184,-0.0032,0.0051,-0.0027,-0.0021,-0.0112,-0.0115,-0.0117,-0.0119,-0.012,0,0.0329,0.0285,0.0317,0.0309,0.0212,0.0207,0.0075,0.0004,-0.0163,-0.0371,-0.0414,-0.0577,-0.0567,-0.0567,-0.0377,-0.0287,-0.0286,-0.0223,-0.0158,-0.0109,-0.0099,-0.0087,-0.0074,-0.0219,-0.0221,-0.0223,-0.0225,0,0.0414,0.0359,0.0315,0.0315,0.024,0.0226,0.0185,0.0022,-0.0101,-0.0257,-0.0348,-0.0506,-0.0546,-0.0471,-0.0318,-0.0287,-0.0283,-0.0242,-0.0149,-0.014,-0.0094,-0.0078,-0.0228,-0.0228,-0.0229,-0.0229,-0.023,0,0.0502,0.0464,0.0412,0.0327,0.0309,0.0297,0.0137,0.0063,-0.0127,-0.0147,-0.0287,-0.0324,-0.0479,-0.0339,-0.0366,-0.0333,-0.0161,-0.0122,-0.0111,-0.0197,-0.0041,0.0293,0.0177,0.0178,0.0178,0.0179,0.018,0,0.0583,0.0526,0.0544,0.0462,0.0419,0.0437,0.0343,0.0257,0.0208,0.0098,-0.0036,-0.014,-0.0053,-0.0065,-0.0144,-0.014,-0.0121,-0.0142,0.0057,0.0064,0.0012,-0.0135,-0.0089,0.0191,0.019,0.0189,0.0188,0,0.0658,0.0667,0.0673,0.0644,0.0651,0.0607,0.0531,0.0419,0.0325,0.0374,0.0217,0.0059,0.0103,0.0005,-0.0021,-0.0092,-0.0082,0.0076,0.0075,0.0218,-0.0017,-0.0097,-0.0108,-0.0063,-0.0068,-0.0073,0.0196,0,0.0726,0.074,0.0726,0.0706,0.0682,0.0675,0.0657,0.0662,0.0713,0.0684,0.0539,0.0511,0.0398,0.0337,0.0348,0.0126,0.0291,0.0275,0.0323,0.0207,0.036,0.0353,0.0456,0.0458,0.0459,0.0461,0,0,0.0803,0.0799,0.0834,0.0813,0.0803,0.0851,0.0807,0.079,0.0848,0.0804,0.0926,0.0753,0.0713,0.0421,0.0401,0.0417,0.0512,0.0427,0.0277,0.0257,0.0238,0.0374,0.0366,0.0463,0.0464,0.0464,0.0465,0,0.0814,0.088,0.0854,0.0859,0.0871,0.0862,0.0868,0.0913,0.0915,0.0929,0.0913,0.0839,0.0825,0.0672,0.0586,0.0467,0.0535,0.0473,0.0353,0.0294,0.0272,0.0252,0.0381,0.0373,0.0468,0.0468,0.0468,0,0.0864,0.0882,0.0893,0.0907,0.091,0.0877,0.0934,0.094,0.09,0.0972,0.0982,0.0966,0.0868,0.0777,0.0741,0.0771,0.0604,0.0629,0.062,0.0562,0.0501,0.0476,0.0453,0.0742,0.0743,0.0744,0,0,0.0867,0.088,0.0899,0.0912,0.0914,0.0931,0.0931,0.0953,0.0969,0.0981,0.1013,0.0992,0.0891,0.0875,0.0825,0.0764,0.0784,0.0662,0.0649,0.0638,0.0575,0.0511,0.0487,0.0747,0.0747,0.0748,0,0,0.0861,0.0894,0.0923,0.0948,0.0937,0.0937,0.0931,0.0957,0.0975,0.1008,0.1004,0.1003,0.0937,0.0933,0.0985,0.0783,0.0837,0.0827,0.0785,0.0769,0.0756,0.0689,0.0951,0,0,0,0,0,0.0879,0.0889,0.0916,0.0924,0.0958,0.093,0.0929,0.0948,0.0996,0.0977,0.1019,0.0992,0.094,0.0988,0.098,0.0859,0.079,0.0783,0.0775,0.0705,0.0688,0.0674,0,0,0,0,0,0,0.0883,0.0894,0.0914,0.0922,0.093,0.0931,0.0974,0.0978,0.0996,0.1001,0.0992,0.099,0.0977,0.0989,0.0982,0.0866,0.0953,0.0787,0.0781,0.0775,0.0699,0.0685,0.0673,0,0,0,0,0,0.0885,0.0894,0.0955,0.0921,0.0927,0.0949,0.0975,0.0979,0.0997,0.0978,0.0979,0.1015,0.0976,0.0971,0.0985,0.0867,0.0957,0.0955,0.0783,0.0778,0.0773,0.0692,0,0,0,0,0,0,0.0887,0.0885,0.0956,0.0957,0.0934,0.0948,0.0955,0.0979,0.0973,0.0975,0.0997,0.1,0.0975,0.0972,0.0968,0.0866,0.0961,0.0958,0.0957,0.0779,0.0775,0.0772,0,0,0,0,0,0,0.088,0.0886,0.0956,0.0972,0.0975,0.0947,0.0954,0.0924,0.0972,0.0992,0.0995,0.0998,0.0976,0.0972,0.0969,0.0922,0.0964,0.0961,0.096,0.0959,0.0776,0.0773,0,0,0,0,0,0,0.0882,0.0887,0.0972,0.0974,0.0977,0.0985,0.0919,0.095,0.1001,0.0991,0.1005,0.1007,0.0975,0.0973,0.0969,0.0924,0.0922,0.0964,0.0962,0.0961,0.096,0,0,0,0,0,0,0,0.0883,0.0858,0.0954,0.0976,0.0978,0.0964,0.0964,0.0964,0.1002,0.1003,0.1005,0.1006,0.0977,0.0974,0.0972,0.0925,0,0,0.0964,0.0963,0,0,0,0,0,0,0,0,0.0855,0.0857,0.0954,0.0954,0.0954,0.0964,0.0964,0.0964,0.1002,0.1003,0.1004,0.1005,0.0976,0.0974,0.0972,0,0,0,0,0,0,0,0,0,0,0,0,0,0,0,0.0954,0.0954,0,0.0964,0.0964,0.0964,0.1002,0.1003,0.1004,0.1005,0.0976,0.0974,0.0972,0,0,0,0,0,0,0,0,0,0,0,0,0,0,0,0,0,0,0,0,0,0,0,0,0,0,0,0,0,0,0,0,0,0,0,0,0,0,0,0,0,0,0,0,0,0,0,0,0,0,0,0,0,0,0,0,0,0,0,0,0,0,0,0,0,0,0,0,0]}]]]